Location: Llanddwyn Island
(53.1333°N, 4.4167°W)
Time: 06:47:03
(UTC+00:00)

Daily predictions for brighter satellites

Satellite Brightness Start Highest point End
(mag) Time Altitude Azimuth Time Altitude Azimuth Time Altitude Azimuth
Cosmos 1763 Rocket 3.5 16:42:31 10° SSW 16:47:36 89° WNW 16:52:43 10° NNE
Cosmos 1766 Rocket 4.2 16:44:25 10° NNW 16:48:48 61° W 16:53:08 10° S
SJ 16-02 4.3 16:46:09 10° NW 16:49:20 20° W 16:52:31 10° SW
Cosmos 2322 Rocket 3.1 16:46:11 10° WSW 16:51:41 47° NW 16:57:11 10° NNE
H-2A R/B 2.5 16:48:36 10° SSE 16:52:51 61° ENE 16:56:59 10° N
Cosmos 1743 Rocket 3.8 16:49:06 10° N 16:53:31 52° ENE 16:57:52 10° SSE
ATLAS 5 CENTAUR R/B 4.1 16:49:04 10° WNW 16:54:14 38° SW 17:00:09 10° S
Cosmos 2298 Rocket 4.0 16:49:38 10° NNW 16:54:57 70° ENE 17:00:15 10° SE
Cosmos 2150 Rocket 4.0 16:51:11 10° NNW 16:56:22 66° ENE 17:01:29 10° SE
NOAA 6 4.0 16:52:22 10° SSE 16:57:31 75° ENE 17:02:40 10° NNW
Cosmos 1818 3.6 16:52:04 10° NW 16:57:35 81° NE 17:03:03 10° SE
CZ-2C R/B 4.4 16:55:37 10° E 16:58:35 16° NE 17:01:30 10° NNE
Cosmos 1408 Rocket 3.7 16:54:48 10° NNW 16:59:15 82° WSW 17:03:36 10° S
Okean-O 4.3 16:57:25 10° E 16:59:49 14° NE 17:02:12 10° NNE
PAYLOAD B 4.2 16:54:53 10° SSE 17:00:28 75° ENE 17:06:03 10° NNW
PSLV R/B 3.9 16:56:35 10° SSE 17:00:42 88° ENE 17:04:49 10° NNW
Sich 1 3.9 16:58:38 10° N 17:02:29 28° ENE 17:06:18 10° SE
AQUARIUS 4.4 16:59:18 10° SE 17:03:35 46° ENE 17:07:54 10° N
Cosmos 1606 4.3 17:03:32 10° SE 17:05:59 16° E 17:08:28 10° NE
CZ-4B DEB 4.3 17:01:04 10° SSE 17:06:34 86° WSW 17:12:05 10° NNW
SJ-7 4.5 17:02:56 10° SSE 17:06:56 82° WSW 17:10:57 10° NNW
Cosmos 2333 Rocket 2.2 17:03:57 10° SSW 17:09:38 77° ESE 17:15:20 10° NE
Cosmos 1842 Rocket 3.5 17:05:42 10° S 17:09:58 64° E 17:14:17 10° NNE
Okean O Rocket 1.7 17:06:20 10° SE 17:10:34 53° ENE 17:14:51 10° N
Cosmos 1125 Rocket 3.5 17:05:58 10° NNW 17:11:10 64° ENE 17:16:20 10° SE
ISS -1.6 17:09:06 10° S 17:11:11 15° SE 17:13:16 10° ESE
Cosmos 1356 4.5 17:09:25 10° N 17:12:18 24° ENE 17:15:10 10° ESE
Helios 1A Rocket 4.5 17:09:55 10° E 17:12:19 15° NE 17:14:43 10° NNE
Radarsat Rocket 4.2 17:07:18 10° SSE 17:13:21 87° ENE 17:20:08 10° NNW
Nadezhda 1 Rocket 4.3 17:07:29 10° SSE 17:13:33 50° E 17:19:42 10° NNE
Cosmos 1805 Rocket 3.9 17:09:16 10° N 17:13:34 44° ENE 17:17:50 10° SE
EP 1 4.2 17:11:45 10° SW 17:14:34 86° NW 17:16:43 14° NE
COSMOS 2428 2.8 17:09:28 10° SSW 17:15:10 69° ESE 17:20:53 10° NE
Meteor 1-27 4.4 17:09:55 10° SSW 17:15:32 77° WNW 17:21:17 10° NNE
Cosmos 2208 Rocket 4.1 17:12:24 10° SSW 17:17:38 68° ESE 17:22:59 10° NNE
CZ-4B R/B 2.9 17:17:15 14° ENE 17:18:04 16° E 17:20:03 10° SE
Cosmos 2278 Rocket 2.3 17:12:35 10° NNW 17:18:18 83° WSW 17:23:59 10° SSE
Aureole 2 Rocket 4.5 17:16:08 10° NW 17:18:29 26° WSW 17:20:54 10° SSW
Cosmos 1666 Rocket 4.4 17:15:50 10° N 17:19:38 28° ENE 17:23:27 10° SE
Cosmos 2154 Rocket 4.0 17:16:29 10° N 17:22:50 75° ENE 17:29:12 10° SSE
Cosmos 1862 3.3 17:19:42 10° N 17:23:47 84° E 17:27:48 10° SSE
Cosmos 1610 Rocket 4.5 17:20:25 10° N 17:26:49 80° ENE 17:33:07 10° SSE
Cosmos 540 Rocket 3.6 17:22:54 10° SSW 17:28:03 78° WNW 17:33:12 10° NNE
USA 267 3.3 17:23:25 10° ESE 17:29:58 85° NNE 17:36:34 10° WNW
Cosmos 2084 Rocket 4.0 17:26:44 10° WSW 17:30:47 51° NNW 17:34:16 14° NE
Cosmos 482 Debris 2.6 17:29:23 10° W 17:31:11 59° S 17:31:54 28° ESE
ERS-2 3.3 17:29:46 17° ENE 17:31:28 23° E 17:34:27 10° SSE
Cosmos 724 4.4 17:25:46 10° SSW 17:31:39 71° SE 17:37:04 13° NE
Cosmos 2341 Rocket 4.1 17:25:36 10° N 17:31:43 52° ENE 17:37:51 10° SSE
Cosmos 2360 Rocket 3.2 17:27:15 10° WSW 17:32:36 42° NW 17:37:57 10° NNE
NOSS 0 Rocket 4.1 17:29:07 10° S 17:35:09 54° ESE 17:40:49 12° NE
Landsat 5 3.6 17:30:50 10° NNE 17:35:11 87° ESE 17:39:39 10° SSW
NOAA 12 4.2 17:31:45 10° SSE 17:37:06 88° WSW 17:42:28 10° NNW
CZ-2D R/B 4.1 17:34:15 10° SE 17:37:32 28° ENE 17:40:52 10° N
H-2A R/B 1.9 17:35:51 10° NNE 17:40:01 76° ESE 17:44:13 10° SSW
Cosmos 841 Rocket 3.8 17:35:13 10° SW 17:40:26 66° WNW 17:45:39 10° NNE
Cosmos 2219 Rocket 2.4 17:34:57 10° SW 17:40:36 75° WNW 17:46:17 10° NNE
CZ-4 R/B 2.4 17:38:23 14° ESE 17:40:54 24° ENE 17:44:10 10° N
Cosmos 2292 4.5 17:38:31 10° S 17:41:37 60° E 17:45:27 10° NNE
USA 81 4.4 17:38:31 10° N 17:43:29 39° ENE 17:48:25 10° SE
Envisat 4.0 17:39:12 10° S 17:44:08 51° W 17:49:06 10° NNW
SMAP 3.3 17:39:41 10° S 17:44:20 74° WSW 17:49:02 10° NNW
Cosmos 1607 4.4 17:38:54 10° WSW 17:45:13 62° NW 17:50:52 14° NE
CZ-4B R/B 3.4 17:40:19 10° S 17:45:39 72° WSW 17:50:58 10° NNW
CREW DRAGON DEMO-1 DEB 3.5 17:42:55 10° W 17:45:50 48° SSW 17:47:43 19° SE
Cosmos 2285 Rocket 4.2 17:40:07 10° NNW 17:46:24 52° NE 17:52:36 10° SE
Cosmos 1980 Rocket 4.3 17:43:58 10° NW 17:47:03 15° NNW 17:50:09 10° NNE
SL-16 R/B 4.0 17:44:18 10° W 17:48:48 23° NNW 17:53:19 10° NNE
Cosmos 2237 Rocket 2.3 17:44:41 10° S 17:50:07 53° ESE 17:54:26 17° NE
Cosmos 1633 Rocket 3.4 17:46:19 10° N 17:50:32 42° ENE 17:54:41 10° SE
NOAA 11 4.1 17:46:59 10° SSE 17:52:25 85° ENE 17:57:54 10° NNW
Cosmos 1939 Rocket 2.8 17:49:21 10° SSE 17:53:07 53° ENE 17:56:57 10° N
FengYun 1-2 T 4.2 17:49:02 10° SSE 17:54:36 88° WSW 18:00:10 10° NNW
SL-8 Rocket 4.0 17:49:48 10° N 17:55:57 58° ENE 18:02:06 10° SSE
H-2A R/B 2.8 17:52:26 12° ESE 17:56:32 30° ENE 18:01:00 10° N
Cosmos 2369 Rocket 2.9 17:54:32 10° NNW 17:59:46 35° NE 18:02:10 25° E
CSL-04 DEB 4.3 17:56:37 10° NNE 18:00:42 87° ESE 18:04:50 10° SSW
CSL-04 Rocket 4.3 18:01:44 21° ESE 18:04:22 32° ENE 18:09:03 10° N
USA 281 3.1 17:58:05 10° SE 18:04:35 69° NE 18:11:08 10° NNW
Meteor 2-12 Rocket 4.4 17:58:56 10° NNW 18:05:09 89° W 18:11:18 10° S
Cosmos 2181 Rocket 4.2 18:00:35 10° SSE 18:06:43 49° E 18:12:49 10° NNE
Cosmos 2221 3.8 18:02:39 10° SW 18:06:47 42° WNW 18:10:55 10° N
Cosmos 1980 3.6 18:02:36 10° SSW 18:08:16 74° ESE 18:12:27 19° NE
Cosmos 389 Rocket 2.2 18:19:00 10° S 18:22:26 84° ESE 18:23:14 50° NNE
YAOGAN 1 2.6 18:21:23 25° SE 18:23:41 52° ENE 18:27:55 10° N
Cosmos 2297 3.7 18:19:49 10° NNW 18:25:32 86° WSW 18:31:15 10° SSE
Cosmos 836 Rocket 4.4 18:20:40 10° SSW 18:25:57 80° ESE 18:29:16 24° NNE
Cosmos 1470 Rocket 3.5 18:21:42 10° N 18:26:00 53° ENE 18:27:22 37° SE
ADEOS Rocket 4.4 18:20:46 10° N 18:27:54 49° WNW 18:35:17 10° SW
Cosmos 1943 Rocket 2.1 18:23:00 10° NNW 18:28:33 67° NE 18:31:41 26° SE
Cosmos 44 3.5 18:23:36 10° NW 18:28:50 85° SW 18:32:39 20° SE
Cosmos 1933 3.2 18:25:02 10° S 18:29:01 64° E 18:29:42 53° NE
Meteor 1-14 Rocket 4.4 18:23:16 10° N 18:29:04 56° ENE 18:34:57 10° SSE
COSMO-SKYMED 1 2.4 18:29:19 35° NNE 18:31:02 67° ESE 18:35:21 10° S
CZ-4 R/B 4.4 18:29:31 10° SSE 18:33:40 83° WSW 18:37:50 10° NNW
Okean-O 2.5 18:31:10 10° SSE 18:35:36 79° ENE 18:40:03 10° NNW
NOAA 15 4.5 18:31:24 10° SSE 18:36:40 74° ENE 18:41:58 10° NNW
Cosmos 1867 3.8 18:31:54 10° SSW 18:37:08 50° SE 18:37:58 46° E
Cosmos 2322 Rocket 4.3 18:33:25 10° WNW 18:37:12 18° NNW 18:40:48 11° NNE
CZ-2C R/B 2.8 18:32:42 10° SSE 18:37:48 78° ENE 18:42:42 10° NNW
USA 215 3.3 18:35:13 36° E 18:37:53 60° SE 18:44:21 10° SW
SL-16 R/B 2.4 18:32:37 10° S 18:38:02 48° ESE 18:38:47 45° E
SJ-11-01 4.3 18:37:47 53° E 18:38:10 55° ENE 18:42:48 10° N
ARGOS 3.3 18:38:31 46° E 18:39:01 47° ENE 18:44:12 10° N
Sich 1 4.5 18:36:10 10° NNW 18:40:18 39° W 18:44:22 10° SSW
Cosmos 1606 3.3 18:37:26 10° SSW 18:41:17 57° WNW 18:43:42 21° N
Cosmos 2218 Rocket 3.9 18:35:40 10° NNW 18:41:52 85° W 18:48:01 10° S
Meteor 1-26 Rocket 4.3 18:37:49 10° S 18:43:43 61° E 18:48:00 19° NNE
Helios 1A Rocket 2.8 18:43:47 16° SSE 18:46:57 81° WSW 18:51:00 10° NNW
Okean O Rocket 4.1 18:43:48 10° SW 18:47:13 22° W 18:50:41 10° NW
ISS -2.5 18:44:11 10° SW 18:46:31 35° SSW 18:46:31 35° SSW
Cosmos 2263 4.3 18:42:33 10° NNW 18:48:02 49° NE 18:48:12 49° NE
SAR-Lupe-4 4.2 18:50:18 50° SSW 18:50:18 50° SSW 18:53:01 10° SSW
CZ-4B R/B 2.6 18:50:24 37° WNW 18:50:29 37° WNW 18:53:21 10° SW
Cosmos 2366 rocket 4.1 18:46:37 10° NNW 18:52:51 75° W 18:58:59 10° S
Cosmos 2333 Rocket 3.8 18:49:32 10° W 18:54:30 30° NW 18:58:12 16° NNE
Cosmos 1933 Rocket 4.4 18:52:14 10° N 18:55:09 40° N 18:55:09 40° N
Cosmos 1932 4.5 18:51:01 10° SW 18:57:34 87° NW 18:59:59 42° NE
COSMOS 2428 4.2 18:54:47 10° WSW 18:59:55 33° NW 19:03:32 17° NNE
Cosmos 1151 Rocket 3.0 18:56:02 10° SSW 19:00:18 79° W 19:00:18 79° W
ERS-2 3.5 19:04:21 33° NW 19:05:08 37° WNW 19:08:32 10° SW
Cosmos 1328 Rocket 3.8 19:02:09 10° SSW 19:05:44 60° SSW 19:05:44 60° SSW
Lacrosse 5 rocket 3.8 19:03:40 10° SSW 19:03:47 11° SSW 19:03:47 11° SSW
NOSS 3-3 (A) 4.5 19:03:02 10° NW 19:10:05 61° NNE 19:11:31 53° ENE
NOSS 3-3 (C) 4.5 19:03:08 10° NW 19:10:11 61° NNE 19:11:36 53° ENE
USA 267 4.0 19:09:06 20° SSE 19:13:22 47° SW 19:19:39 10° WNW
CZ-4 R/B 2.4 19:14:25 31° SW 19:15:44 43° W 19:19:35 10° NNW
Cosmos 2360 Rocket 4.3 19:14:38 10° WNW 19:18:10 17° NNW 19:20:33 13° N
Meteor 1-5 Rocket 4.2 19:13:57 10° NNW 19:19:49 78° NE 19:19:49 78° NE
Cosmos 2239 Rocket 4.4 19:14:21 10° N 19:19:58 68° NE 19:19:58 68° NE
CSL-04 Debris 4.3 19:17:54 30° S 19:20:43 74° WSW 19:26:15 10° NNW
Cosmos 2219 Rocket 4.1 19:21:03 10° W 19:25:31 23° NNW 19:28:08 17° N
Cosmos 1980 Rocket 4.4 19:30:56 10° NNW 19:32:56 13° N 19:32:56 13° N
Cosmos 44 Rocket 4.5 19:28:52 10° NW 19:32:07 37° NNW 19:32:07 37° NNW
Cosmos 2237 Rocket 3.4 19:29:11 10° WSW 19:34:26 38° NW 19:36:16 30° N
SL-16 R/B 4.4 19:32:32 10° NNW 19:35:08 13° N 19:35:58 13° N
H-2A R/B 2.7 19:33:04 28° SSW 19:35:44 55° W 19:40:52 10° NNW
Cosmos 1656 Rocket 4.2 19:31:33 10° NNW 19:35:44 50° NNW 19:35:44 50° NNW
MOS 1 Rocket 4.0 19:43:05 60° WSW 19:43:05 60° WSW 19:47:54 10° SSW
Cosmos 2369 Rocket 2.5 19:38:32 10° NW 19:43:59 62° WSW 19:43:59 62° WSW
CSL-04 Rocket 4.3 19:43:23 44° SW 19:44:31 52° W 19:49:44 10° NNW
Cosmos 1821 Rocket 4.4 19:49:06 10° NNW 19:55:11 61° W 19:56:14 53° SW
Cosmos 1943 Rocket 4.0 20:07:19 10° NW 20:11:53 27° WSW 20:13:17 24° SW
USA 215 3.7 20:22:34 56° W 20:22:34 56° W 20:27:37 10° W
SL-16 R/B 3.6 20:16:55 10° WSW 20:20:43 34° W 20:20:43 34° W
